CAPE
104 84 99 209 251 75 251 169 75 410 295 7 0 0 0 0 0 0 0 0 8 10 10 9 8 8 8 12 10 12 11 14 11
27 14 51 96 30 156 195 0 122 507 93 0 0 0 0 0 0 0 0 0 8 8 8 8 8 8 10 8 11 12 11 11 11
0 1 22 23 12 223 53 0 76 94 0 0 0 0 0 0 0 0 0 10 7 8 7 8 8 7 8 7 9 8 11 11 11
0 7 19 22 314 453 229 39 72 21 0 0 0 0 0 0 0 0 0 15 5 6 6 7 8 7 8 8 8 10 10 7 10
76 84 90 136 458 445 256 67 4 35 0 0 0 0 0 0 0 0 0 5 3 3 3 3 5 5 6 6 5 7 7 7 8
14 86 253 381 418 377 159 55 0 0 0 0 0 0 0 0 0 0 3 1 1 2 1 2 4 4 4 3 3 4 5 5 5
12 9 151 253 209 186 107 0 0 0 0 0 0 0 0 0 0 0 0 0 0 0 0 0 1 2 2 2 2 2 3 4 4
4 0 0 2 9 0 2 0 0 0 0 0 0 0 0 0 0 0 0 0 0 0 0 0 0 1 1 2 2 1 2 1 2
0 0 0 0 0 0 0 0 0 0 0 0 0 0 0 0 0 0 0 0 0 0 0 0 0 1 1 1 1 1 2 2 1
0 0 0 0 0 0 0 0 0 0 0 0 0 0 0 0 0 0 0 0 0 0 0 0 1 1 1 1 1 1 1 0 0
0 0 0 0 0 0 0 0 0 0 0 0 0 0 0 0 0 0 0 0 0 0 0 0 1 3 2 2 1 0 0 0 0
0 0 0 0 0 0 0 0 0 0 0 0 0 0 0 0 0 0 0 0 0 0 0 2 2 3 5 2 2 0 0 0 0
0 0 0 0 0 0 0 0 0 0 0 0 0 0 0 0 0 0 0 0 0 0 7 23 3 3 5 4 4 0 0 0 0
0 0 0 0 0 0 0 0 0 0 0 0 0 0 0 0 0 0 0 0 0 0 0 0 14 53 15 9 35 44 5 0 0
0 0 0 0 0 0 0 0 0 0 0 0 0 0 0 0 0 0 0 0 0 0 0 0 0 0 81 49 57 100 103 74 6
0 0 0 0 0 0 0 0 0 0 0 0 0 0 0 0 0 0 0 0 0 0 0 0 0 0 3 124 109 113 155 145 97
4 0 0 0 0 0 0 0 0 0 0 0 0 0 0 0 0 0 0 0 0 0 0 0 0 0 0 3 13 61 106 149 200
0 0 0 0 0 0 0 0 0 0 0 0 0 0 0 0 0 0 0 0 0 0 0 0 0 0 0 0 0 0 6 48 118
0 0 0 0 0 0 0 0 0 0 0 0 0 0 0 0 0 0 0 0 0 0 0 0 0 0 0 0 0 0 0 0 6
9 3 9 0 0 0 0 0 0 0 0 0 0 0 0 0 0 2 0 0 0 0 0 0 0 0 0 0 0 0 0 0 0
CIN
-80 -94 -81 -47 -45 -115 -45 -84 -123 -18 -59 -0 -0 -0 -0 -0 -0 -0 -0 -0 -0 -0 -0 -0 -0 -0 -0 -0 -0 -0 -0 -0 -0
-169 -202 -115 -90 -160 -67 -65 -0 -99 -9 -35 -0 -0 -0 -0 -0 -0 -0 -0 -0 -0 -0 -0 -0 -0 -0 -0 -0 -0 -0 -0 -0 -0
-0 -0 -230 -203 -88 -42 -42 -0 -13 -45 -0 -0 -0 -0 -0 -0 -0 -0 -0 -1 -0 -0 -0 -0 -0 -0 -0 -0 -0 -0 -0 -0 -0
-0 -231 -200 -171 -14 -5 -47 -23 -26 -15 -0 -0 -0 -0 -0 -0 -0 -0 -0 -0 -0 -0 -0 -0 -0 -0 -0 -0 -0 -0 -0 -0 -0
-128 -102 -93 -50 -1 -2 -29 -49 -9 -70 -0 -0 -0 -0 -0 -0 -0 -0 -0 -0 -0 -0 -0 -0 -0 -0 -0 -0 -0 -0 -0 -0 -0
-13 -94 -23 -6 -4 -6 -57 -53 -0 -0 -0 -0 -0 -0 -0 -0 -0 -0 -0 -0 -0 -0 -0 -0 -0 -0 -0 -0 -0 -0 -0 -0 -0
-29 -55 -54 -22 -33 -40 -98 -0 -0 -0 -0 -0 -0 -0 -0 -0 -0 -0 -0 -0 -0 -0 -0 -0 -0 -0 -0 -0 -0 -0 -0 -0 -0
-38 -0 -0 -23 -20 -0 -5 -0 -0 -0 -0 -0 -0 -0 -0 -0 -0 -0 -0 -0 -0 -0 -0 -0 -0 -0 -0 -0 -0 -0 -0 -0 -0
-0 -0 -0 -0 -0 -0 -0 -0 -0 -0 -0 -0 -0 -0 -0 -0 -0 -0 -0 -0 -0 -0 -0 -0 -0 -0 -0 -0 -0 -0 -0 -0 -0
-0 -0 -0 -0 -0 -0 -0 -0 -0 -0 -0 -0 -0 -0 -0 -0 -0 -0 -0 -0 -0 -0 -0 -0 -0 -0 -0 -0 -0 -0 -0 -0 -0
-0 -0 -0 -0 -0 -0 -0 -0 -0 -0 -0 -0 -0 -0 -0 -0 -0 -0 -0 -0 -0 -0 -0 -0 -0 -0 -0 -0 -0 -0 -0 -0 -0
-0 -0 -0 -0 -0 -0 -0 -0 -0 -0 -0 -0 -0 -0 -0 -0 -0 -0 -0 -0 -0 -0 -0 -0 -0 -0 -0 -0 -0 -0 -0 -0 -0
-0 -0 -0 -0 -0 -0 -0 -0 -0 -0 -0 -0 -0 -0 -0 -0 -0 -0 -0 -0 -0 -0 -30 -16 -6 -0 -0 -1 -1 -0 -0 -0 -0
-0 -0 -0 -0 -0 -0 -0 -0 -0 -0 -0 -0 -0 -0 -0 -0 -0 -0 -0 -0 -0 -0 -0 -0 -16 -10 -3 -0 -2 -5 -5 -0 -0
-0 -0 -0 -0 -0 -0 -0 -0 -0 -0 -0 -0 -0 -0 -0 -0 -0 -0 -0 -0 -0 -0 -0 -0 -0 -0 -3 -1 -0 -0 -0 -0 -13
-0 -0 -0 -0 -0 -0 -0 -0 -0 -0 -0 -0 -0 -0 -0 -0 -0 -0 -0 -0 -0 -0 -0 -0 -0 -0 -78 -3 -2 -14 -11 -0 -2
-356 -0 -198 -0 -0 -0 -0 -0 -0 -0 -0 -0 -0 -0 -0 -0 -0 -0 -0 -0 -0 -0 -0 -0 -0 -0 -0 -93 -64 -49 -38 -15 -0
-170 -0 -86 -0 -0 -0 -0 -0 -0 -0 -0 -0 -0 -0 -0 -0 -0 -0 -0 -0 -0 -0 -0 -0 -0 -0 -0 -0 -0 -0 -169 -76 -24
-0 -0 -0 -0 -0 -0 -0 -0 -0 -0 -0 -0 -0 -0 -0 -0 -0 -0 -0 -0 -0 -0 -0 -0 -0 -0 -0 -0 -0 -0 -0 -0 -46
-188 -223 -212 -16 -0 -0 -0 -15 -0 -0 -0 -0 -0 -0 -0 -0 -0 -122 -35 -0 -0 -0 -0 -0 -0 -0 -0 -0 -0 -0 -0 -0 -0
Wind_Speed
21 20 18 17 16 16 17 16 15 16 17 17 16 16 15 11 7 6 8 5 14 15 15 15 16 16 16 16 16 17 17 17 18
20 19 17 17 16 17 17 15 15 16 17 16 16 16 14 6 6 6 5 6 14 14 15 15 15 15 16 15 15 16 16 16 17
19 19 18 17 18 17 17 16 18 18 17 16 16 15 11 7 6 6 4 10 13 14 14 14 14 14 15 14 14 15 15 15 16
20 18 17 17 17 16 14 15 16 17 16 16 16 15 12 6 4 4 3 10 13 13 13 13 13 13 13 13 14 13 14 14 14
16 14 16 16 15 15 13 14 17 16 16 15 14 12 11 6 5 3 3 11 12 12 12 12 12 12 12 12 12 12 12 13 13
8 9 12 14 14 14 13 13 14 13 12 12 12 10 3 4 3 2 8 10 11 11 11 10 11 11 10 10 10 11 11 12 12
8 9 11 12 12 11 11 11 12 8 4 3 7 3 4 3 3 2 8 9 10 10 10 9 9 9 9 9 9 9 10 11 10
5 4 4 4 6 3 5 5 4 5 4 3 3 4 3 2 2 3 7 9 9 9 9 8 8 8 7 7 7 8 8 9 9
4 3 4 4 3 5 4 3 4 4 4 3 4 4 4 2 2 3 7 7 8 8 8 7 7 6 6 6 6 6 7 8 8
4 4 3 3 3 3 4 3 3 2 2 3 5 5 5 5 3 2 7 7 7 7 7 6 6 6 5 5 5 5 6 6 6
5 4 3 3 3 3 4 4 3 2 1 2 4 5 5 5 5 3 4 8 8 8 8 7 7 7 6 5 5 5 5 4 5
7 5 4 4 3 4 3 2 1 1 1 2 3 3 5 4 5 4 3 4 7 9 9 9 8 7 7 6 5 5 5 4 4
5 5 5 4 4 4 3 3 2 2 2 2 3 3 3 5 5 4 4 4 4 7 10 10 10 9 8 7 7 7 7 7 6
7 6 5 6 5 4 4 2 2 3 3 4 3 3 3 5 3 6 5 6 5 4 7 9 10 10 11 9 11 12 11 11 11
7 5 6 6 4 4 3 3 2 2 3 2 2 3 3 3 4 5 4 5 6 5 5 4 4 10 12 13 12 12 10 13 14
9 6 6 6 6 6 6 3 4 3 2 2 2 3 5 5 5 4 4 5 6 6 5 4 3 5 12 12 14 14 14 12 14
9 8 7 9 6 6 6 5 3 2 4 3 2 3 4 3 5 4 4 5 4 5 6 6 6 5 3 5 7 10 14 16 14
9 9 8 8 5 6 7 6 6 4 4 5 4 0 4 2 1 2 4 5 4 4 4 5 4 3 3 3 5 5 9 11 13
4 3 4 6 4 5 4 3 3 3 4 2 4 1 3 1 4 2 2 2 2 2 1 2 2 3 3 2 2 3 4 5 8
5 4 4 5 3 4 7 7 5 3 2 4 2 4 2 2 3 3 2 2 1 1 3 4 4 4 3 2 0 3 6 7 9
Wind_Direction
119 118 116 114 115 120 116 108 112 112 107 108 103 97 90 77 66 62 72 68 84 84 84 81 84 82 81 77 77 76 74 72 71
125 122 121 122 123 125 113 108 110 123 112 108 105 99 90 79 71 69 66 85 91 90 87 87 85 84 82 80 80 77 75 73 72
131 133 130 132 133 125 115 110 115 116 117 115 112 104 93 78 75 70 66 91 94 91 89 89 88 87 85 86 82 81 79 73 73
141 140 139 139 138 127 119 109 117 121 120 121 117 111 108 100 93 83 70 99 99 97 95 92 91 90 88 85 82 81 79 79 75
147 152 143 141 136 129 126 117 118 123 125 123 117 111 109 106 98 86 102 106 104 102 100 99 96 94 91 89 87 84 81 79 75
106 116 129 135 135 136 133 124 119 112 121 126 121 114 114 118 112 110 113 114 110 108 104 103 102 99 96 94 90 87 86 83 78
125 113 117 130 137 136 133 125 114 97 93 115 114 110 128 122 128 127 127 120 116 115 113 112 110 108 107 103 99 96 91 85 82
115 114 105 110 99 94 104 102 98 109 107 103 134 133 137 143 139 152 139 132 128 127 127 127 127 123 117 112 107 103 100 96 88
116 125 135 135 146 137 134 125 119 119 111 117 160 162 156 168 165 182 157 149 144 144 145 142 139 132 132 131 126 118 103 95 92
132 136 139 138 136 146 150 145 137 153 168 187 161 180 180 180 180 180 183 173 167 165 160 154 154 153 151 144 133 121 118 112 106
150 145 154 155 162 150 150 162 176 215 239 176 198 195 195 189 188 188 198 192 187 183 180 180 179 175 170 166 162 154 140 132 121
161 160 167 179 180 163 152 161 143 280 300 241 181 184 208 208 205 200 206 210 206 203 199 198 195 191 189 189 184 182 173 161 156
156 163 179 176 172 168 172 173 199 210 198 233 223 201 205 218 218 208 209 212 211 219 217 207 208 205 206 199 195 206 201 196 194
170 176 181 172 175 179 175 181 163 186 204 220 224 234 216 218 209 223 216 214 218 220 233 222 214 212 216 222 216 220 206 201 202
179 181 169 170 169 178 163 168 186 200 198 218 259 261 255 237 220 217 215 216 220 222 225 233 219 223 219 226 244 253 237 224 217
185 188 170 170 179 196 186 148 173 214 164 86 325 285 242 233 223 219 221 224 223 219 211 220 228 231 228 228 239 254 269 261 233
184 179 185 186 176 167 171 163 161 188 184 141 95 306 318 273 227 208 220 224 221 226 222 208 220 225 226 231 244 267 272 280 286
182 181 174 174 179 185 184 174 172 181 210 196 151 146 241 322 304 191 210 222 212 234 233 221 218 209 213 215 242 279 273 275 282
186 181 174 159 163 169 195 186 174 148 200 258 211 187 163 164 334 342 16 3 258 277 246 147 118 139 162 145 103 26 328 307 294
194 188 193 164 171 169 179 164 188 199 185 229 166 180 209 233 159 256 309 339 274 212 194 165 167 168 151 158 189 30 307 301 288